Miscellaneous Local Product
Issued by NWS North Platte, NE

Home | Current Version | Previous Version | Graphics & Text | Print | Product List | Glossary On
Versions: 1 2 3 4 5 6 7 8 9 10 11 12 13 14 15 16 17 18 19 20 21 22 23 24 25 26 27 28 29 30 31 32 33 34 35 36 37 38 39 40 41 42 43 44 45 46 47 48 49 50
000
AXUS43 KLBF 240110
MISLBF


WESTERN AND NORTH CENTRAL NEBRASKA HOURLY WEATHER ROUNDUP
NATIONAL WEATHER SERVICE NORTH PLATTE NE
800 PM CDT FRI JUN 23 2017

NOTE: "FAIR" INDICATES FEW OR NO CLOUDS BELOW 12,000 FEET WITH NO
SIGNIFICANT WEATHER AND/OR OBSTRUCTIONS TO VISIBILITY.

NOTE: STATIONS NOT REPORTING VARIABLES SUCH AS SKY/WEATHER OR
PRESSURE ARE PROVIDED BY RAWS AND APRS NETWORKS AND ARE NOT UNDER
NATIONAL WEATHER SERVICE QUALITY CONTROL.

...OBSERVATIONS IN AND NEAR THE EASTERN PANHANDLE OF NEBRASKA...

CITY           SKY/WX    TMP DP  RH WIND       PRES   REMARKS
PINE RIDGE     SUNNY     68  33  27 NE15      30.18R
GORDON         FAIR      67  33  28 N15G21    30.18R
CHADRON        SUNNY     70  36  28 NE13G18   30.17R
ALLIANCE       SUNNY     69  29  22 N17       30.18R
SIDNEY         PTSUNNY   70  37  29 N14       30.20R
CRESCENT LAKE    N/A     70  31  23 N14G25      N/A
$$

...OBSERVATIONS IN NORTHERN NEBRASKA AND FAR SOUTHERN SOUTH DAKOTA...

CITY           SKY/WX    TMP DP  RH WIND       PRES   REMARKS
WINNER         FAIR      71  31  22 NW18      30.11R
VALENTINE      SUNNY     71  29  21 N18       30.14R
THEDFORD       SUNNY     69  37  30 N10G16    30.15R
AINSWORTH      SUNNY     68  35  30 N15       30.13R
O`NEILL        SUNNY     69  38  31 NW14G21   30.10R
ORD            SUNNY     70  38  31 NW13      30.09R
BROKEN BOW     SUNNY     71  41  33 N12       30.12R
VALENTINE NWR    N/A     69  36  30 NW14G23     N/A
HALSEY           N/A     72  35  25 NW9G17      N/A
BUTTE            N/A     67  36  32 NW15G24     N/A
CHAMBERS         N/A     70  39  31 CALM        N/A
EWING            N/A     68  44  41 N7G15       N/A
$$

...OBSERVATIONS IN SOUTHWEST NEBRASKA AND FAR NORTHEAST COLORADO...

CITY           SKY/WX    TMP DP  RH WIND       PRES   REMARKS
WRAY           FAIR      72  39  30 N8        30.18S
IMPERIAL       MOSUNNY   74  36  25 W9        30.14R
OGALLALA       SUNNY     76  32  20 NW12G17   30.15R
NORTH PLATTE   SUNNY     73  39  29 N14G23    30.12R
MCCOOK         SUNNY     77  37  23 NW12      30.10R
LEXINGTON      SUNNY     73  43  34 N12       30.11R
STAPLETON        N/A     71  43  37 CALM        N/A
GOTHENBURG       N/A     74  39  27 N9          N/A
CALLAWAY         N/A     72  44  36 N12         N/A
$$

...OBSERVATIONS IN CENTRAL LINCOLN COUNTY AREA...

CITY           SKY/WX    TMP DP  RH WIND       PRES   REMARKS
N.P. AIRPORT   SUNNY     73  39  29 N14G23    30.12R
N.P. DOWNTOWN    N/A     72  42  34 NE5         N/A
N.P. SOUTHEAST   N/A     72  42  34 MISG        N/A
N.P. HILLCREST   N/A     72  40  31 NE12G18     N/A
$$

...SOME OBSERVATIONS FROM AROUND THE REGION...

CITY           SKY/WX    TMP DP  RH WIND       PRES   REMARKS
DENVER         PTSUNNY   60  45  57 W5        30.26R
LIMON          PTSUNNY   63  43  48 CALM      30.26R
ASPEN          SUNNY     76  20  12 N15G22    30.24R
LARAMIE        CLOUDY    59  38  45 E13       30.28R
CASPER         SUNNY     66  31  27 N14       30.24R
CHEYENNE       PTSUNNY   62  42  47 SW3       30.27R
SCOTTSBLUFF    CLOUDY    72  29  20 N16G26    30.19R
GRAND ISLAND   MOSUNNY   72  45  37 N14       30.09R
OMAHA          MOCLDY    71  48  43 NW13      30.01R
SIOUX FALLS    MOSUNNY   66  41  40 NW14G26   30.01R
PIERRE         SUNNY     68  32  26 NW14G24   30.09R
RAPID CITY     SUNNY     67  27  22 N22G31    30.18R
BISMARCK       SUNNY     65  35  33 NW16G33   30.09R
KANSAS CITY    PTCLDY    73  55  53 NW9       30.01R
HILL CITY      PTSUNNY   77  48  35 N6        30.09R
WICHITA        MOCLDY    78  48  34 N10       30.02R
DODGE CITY     CLOUDY    71  47  42 N10       30.12R
OKLAHOMA CITY  MOCLDY    83  53  35 NE21      29.96R
DALLAS         PTCLDY    95  72  47 E12       29.80R HX 103
AMARILLO       SUNNY     79  49  34 NE23G30   30.08R
$$




USA.gov is the U.S. government's official web portal to all federal, state and local government web resources and services.